This demonstration page uses our WeatherBlox Daily Observations layout. Learn more.

36.17497, -115.13722

Hourly Observations for June 24, 2020

Temp ( °F °C ) Dew Point ( °F °C ) Humidity (%) Winds ( mph kmh ) Pressure ( in mb ) Visibility ( mi km ) Precip ( " mm )
12:53 am 00:53 Clear 89 31.7 25 -3.9 10 10 SSE 3 6 29.78 1008 10 16.0934 0 0
1:53 am 01:53 Clear 86 30 30 -1.1 13 13 W 6 9 29.78 1009 10 16.0934 0 0
2:53 am 02:53 Clear 86 30 28 -2.2 12 12 NE 5 7 29.78 1008 10 16.0934 0 0
3:53 am 03:53 Clear 83 28.3 30 -1.1 15 15 NNW 5 7 29.78 1008 10 16.0934 0 0
4:53 am 04:53 Clear 81 27.2 30 -1.1 16 16 NNW 7 11 29.78 1009 10 16.0934 0 0
5:53 am 05:53 Sunny 81 27.2 29 -1.7 15 15 NW 6 9 29.78 1008 10 16.0934 0 0
6:53 am 06:53 Sunny 83 28.3 32 0 16 16 NNW 6 9 29.78 1009 10 16.0934 0 0
7:53 am 07:53 Sunny 89 31.7 32 0 13 13 ENE 6 9 29.78 1008 10 16.0934 0 0
8:53 am 08:53 Sunny 92 33.3 29 -1.7 10 10 ENE 5 7 29.78 1008 10 16.0934 0 0
9:53 am 09:53 Sunny 95 35 33 0.6 11 11 VRB 3 6 29.77 1008 10 16.0934 0 0
10:53 am 10:53 Sunny 98 36.7 32 0 10 10 ESE 10 17 29.78 1008 10 16.0934 0 0
11:53 am 11:53 Sunny 102 38.9 32 0 9 9 undefined N/A 29.77 1008 10 16.0934 0 0
12:53 pm 12:53 Sunny 103 39.4 28 -2.2 7 7 SE 8 13 29.78 1008 10 16.0934 0 0
1:53 pm 13:53 Sunny 105 40.6 32 0 8 8 ESE 10 17 29.77 1008 10 16.0934 0 0
2:53 pm 14:53 Sunny 105 40.6 32 0 8 8 SSE 13 20 29.77 1008 10 16.0934 0 0
3:53 pm 15:53 Sunny 105 40.6 34 1.1 8 8 ESE 10 17 29.78 1008 10 16.0934 0 0
4:53 pm 16:53 Sunny 106 41.1 33 0.6 8 8 ESE 9 15 29.78 1008 10 16.0934 0 0
5:53 pm 17:53 Sunny 106 41.1 33 0.6 8 8 ESE 7 11 29.78 1008 10 16.0934 0 0
6:23 pm 18:23 Sunny 106 41.1 32 0 8 8 ESE 14 22 29.6 1002 10 16.0934 0 0
6:53 pm 18:53 Sunny 105 40.6 31 -0.6 7 7 E 12 19 29.78 1008 10 16.0934 0 0
7:53 pm 19:53 Sunny 103 39.4 30 -1.1 8 8 SW 15 24 29.78 1009 10 16.0934 0 0
8:53 pm 20:53 Clear 101 38.3 30 -1.1 8 8 SSW 9 15 29.76 1008 10 16.0934 0 0
9:53 pm 21:53 Clear 98 36.7 30 -1.1 9 9 S 7 11 29.77 1008 10 16.0934 0 0
10:53 pm 22:53 Clear 97 36.1 30 -1.1 9 9 S 6 9 29.76 1008 10 16.0934 0 0
11:53 pm 23:53 Clear 95 35 30 -1.1 10 10 S 9 15 29.77 1008 10 16.0934 0 0

Powered by AerisWeather